Hourly Weather Roundup
Issued by NWS

Home | Current Version | Previous Version | Text Only | Print | Product List | Glossary On
Versions: 1 2 3 4 5 6 7 8 9 10 11 12 13 14 15 16 17 18 19 20 21 22 23 24 25 26 27 28 29 30 31 32 33 34 35 36 37 38 39 40 41 42 43 44 45 46 47 48 49 50
000
NZUS43 KILX 281210
HWRCRS

CRS HOURLY WEATHER ROUNDUP
NATIONAL WEATHER SERVICE, LINCOLN IL
700 AM CDT SAT MAY 28 2016


CITY           SKY/WX    TMP DP  RH WIND       PRES   REMARKS
CHAMPAIGN      MOSUNNY   70  65  84 S16       29.93S
LAWRENCEVILLE  CLOUDY    72  67  84 S8        29.99R
PEORIA         CLOUDY    70  64  81 S17       29.86R
SPRINGFIELD    CLOUDY    70  65  84 S12       29.88R
$$


CITY           SKY/WX    TMP DP  RH WIND       PRES   REMARKS
BLOOMINGTON    PTSUNNY   69  68  97 S16       29.91R
DECATUR        CLOUDY    70  65  84 S15       29.90F
EFFINGHAM      CLOUDY    69  68  96 SE8       29.96S
FLORA          CLOUDY    70  67  89 S7        29.96R
GALESBURG      CLOUDY    68  66  92 S10G17    29.83S
JACKSONVILLE   PTSUNNY   69  64  86 S10G16    29.88R
LACON          CLOUDY    70  65  83 S13       29.85R
LINCOLN        CLOUDY    69  67  91 S10G16    29.88S
LITCHFIELD     CLOUDY    67  63  87 S13       29.90S

CITY           SKY/WX    TMP DP  RH WIND       PRES   REMARKS
MACOMB         CLOUDY    68  66  93 S13       29.85S
MATTOON        CLOUDY    70  64  81 S8        29.94S
MOLINE         CLOUDY    70  65  84 S9        29.80R
OLNEY          CLOUDY    70  66  88 SE9       29.96S
PARIS          CLOUDY    70  66  88 S7        29.97S
PONTIAC        CLOUDY    71  67  89 S14       29.90S
QUINCY         CLOUDY    68  65  90 S9        29.85R
RANTOUL        MOSUNNY   71  66  84 S12       29.93S
ROBINSON       CLOUDY    70  66  86 S7        29.99R
TAYLORVILLE    PTSUNNY   69  65  89 S14       29.91R
TERRE HAUTE    CLOUDY    73  65  75 S10       29.98R
$$


CITY           SKY/WX    TMP DP  RH WIND       PRES   REMARKS
BURLINGTON     CLOUDY    68  67  96 S14       29.81S
CHICAGO        CLOUDY    70  65  84 S13G22    29.87R
DES MOINES     PTSUNNY   62  59  90 SE6       29.75R
EVANSVILLE     CLOUDY    71  66  84 SE5       30.01R
INDIANAPOLIS   CLOUDY    72  65  78 S12       29.99R
KANSAS CITY    CLOUDY    61  58  90 SE7       29.78R
MILWAUKEE      CLOUDY    69  63  81 S13       29.84S
ST LOUIS       CLOUDY    69  64  84 S10       29.90R
$$





USA.gov is the U.S. government's official web portal to all federal, state and local government web resources and services.